FW5837 Weather Reports


Display with metric or nautical units.
time (UTC)temp
F
wind
direction
speed
MPH
gust
MPH
rain 1hr
in
rain 24hr
in
rain mn
in
humidity
%
barometer
mb
20260509031028 37 249 1.0 4.0 0.00 0.00 0.00 73 1011.6
20260509030531 37 249 1.0 4.0 0.00 0.00 0.00 73 1011.6
20260509030043 37 0 1.0 4.0 0.00 0.00 0.00 73 1011.5
20260509025530 37 209 0.0 3.0 0.00 0.00 0.00 73 1011.5
20260509025032 38 0 0.0 5.0 0.00 0.00 0.00 73 1011.5
20260509024537 38 0 0.0 5.0 0.00 0.00 0.00 72 1011.4
20260509024032 38 137 1.0 5.0 0.00 0.00 0.00 73 1011.4
20260509023531 38 213 0.0 4.0 0.00 0.00 0.00 72 1011.4
20260509023047 38 0 0.0 5.0 0.00 0.00 0.00 72 1011.4
20260509022531 38 222 2.0 9.0 0.00 0.00 0.00 72 1011.4
20260509022032 38 229 3.0 9.0 0.00 0.00 0.00 72 1011.3
20260509021543 38 246 2.0 4.0 0.00 0.00 0.00 72 1011.3
20260509021031 38 246 1.0 5.0 0.00 0.00 0.00 72 1011.3
20260509020531 38 247 2.0 5.0 0.00 0.00 0.00 72 1011.1
20260509020043 38 219 1.0 7.0 0.00 0.00 0.00 72 1011.1
20260509015535 39 202 3.0 7.0 0.00 0.00 0.00 71 1011.0
20260509015031 38 244 1.0 4.0 0.00 0.00 0.00 72 1010.9
20260509014543 39 0 1.0 4.0 0.00 0.00 0.00 72 1011.0
20260509014028 38 298 1.0 4.0 0.00 0.00 0.00 72 1010.9
20260509013533 38 250 1.0 4.0 0.00 0.00 0.00 72 1010.8
20260509013058 38 226 1.0 3.0 0.00 0.00 0.00 72 1010.9
20260509012532 38 240 1.0 4.0 0.00 0.00 0.00 72 1010.9
20260509012028 39 240 1.0 4.0 0.00 0.00 0.00 72 1010.9
20260509011539 39 233 2.0 4.0 0.00 0.00 0.00 72 1010.7
20260509011028 39 247 2.0 5.0 0.00 0.00 0.00 71 1010.7
20260509010531 39 231 2.0 7.0 0.00 0.00 0.00 71 1010.7
20260509010044 39 240 1.0 7.0 0.00 0.00 0.00 71 1010.5
20260509005532 39 244 2.0 7.0 0.00 0.00 0.00 71 1010.5
20260509005031 39 225 2.0 6.0 0.00 0.00 0.00 70 1010.5
20260509004608 39 257 2.0 6.0 0.00 0.00 0.00 71 1010.3
20260509004033 39 241 2.0 5.0 0.00 0.00 0.00 71 1010.2
20260509003532 39 241 2.0 7.0 0.00 0.00 0.00 70 1010.1
20260509003048 39 236 3.0 7.0 0.00 0.00 0.00 70 1009.9
20260509002533 40 239 3.0 9.0 0.00 0.00 0.00 70 1009.8
20260509002031 40 242 3.0 10.0 0.00 0.00 0.00 69 1009.7
20260509001544 40 261 5.0 10.0 0.00 0.00 0.00 70 1009.6
20260509001028 40 238 3.0 8.0 0.00 0.00 0.00 69 1009.7
20260509000531 40 211 4.0 10.0 0.00 0.00 0.00 69 1009.8
20260509000039 40 250 4.0 10.0 0.00 0.00 0.00 69 1009.8
20260508235530 40 221 3.0 7.0 0.00 0.00 0.00 69 1009.8
20260508235031 40 253 3.0 12.0 0.00 0.00 0.00 69 1009.8
20260508234546 40 248 3.0 12.0 0.00 0.00 0.00 70 1009.7
20260508234030 40 248 7.0 12.0 0.00 0.00 0.00 68 1009.5
20260508233532 40 240 5.0 11.0 0.00 0.00 0.00 69 1009.6
20260508233056 41 209 4.0 15.0 0.00 0.00 0.00 69 1009.5
20260508232532 41 263 4.0 15.0 0.00 0.00 0.00 69 1009.5
20260508232035 41 244 4.0 11.0 0.00 0.00 0.00 68 1009.5
20260508231544 41 257 4.0 11.0 0.00 0.00 0.00 68 1009.5
20260508231034 41 255 4.0 11.0 0.00 0.00 0.00 68 1009.5
20260508230531 41 263 3.0 11.0 0.00 0.00 0.00 68 1009.5
20260508230055 41 273 4.0 11.0 0.00 0.00 0.00 69 1009.4
20260508225531 41 263 2.0 11.0 0.00 0.00 0.00 70 1009.3
20260508225031 41 273 3.0 10.0 0.00 0.00 0.00 70 1009.4
20260508224544 41 249 4.0 13.0 0.00 0.00 0.00 69 1009.4
20260508224031 41 184 5.0 13.0 0.00 0.00 0.00 69 1009.3
20260508223531 41 224 5.0 11.0 0.00 0.00 0.00 69 1009.3
20260508223041 42 251 4.0 12.0 0.00 0.00 0.00 69 1009.3
20260508222530 42 216 5.0 12.0 0.00 0.00 0.00 68 1009.3
20260508222032 42 251 5.0 11.0 0.00 0.00 0.00 66 1009.2
20260508221546 43 261 3.0 8.0 0.00 0.00 0.00 66 1009.3
20260508221031 43 278 4.0 12.0 0.00 0.00 0.00 65 1009.4
20260508220531 44 264 4.0 12.0 0.00 0.00 0.00 64 1009.2
20260508220051 43 219 5.0 12.0 0.00 0.00 0.00 65 1009.3
20260508215530 44 264 3.0 9.0 0.00 0.00 0.00 64 1009.2
20260508215030 44 257 3.0 11.0 0.00 0.00 0.00 65 1009.2
20260508214548 43 210 5.0 13.0 0.00 0.00 0.00 64 1009.1
20260508214032 44 263 5.0 13.0 0.00 0.00 0.00 63 1009.1
20260508213533 44 256 4.0 12.0 0.00 0.00 0.00 63 1009.0
20260508213043 44 230 3.0 11.0 0.00 0.00 0.00 65 1009.0
20260508212529 43 234 6.0 11.0 0.00 0.00 0.00 67 1009.0
20260508212029 42 238 5.0 10.0 0.00 0.00 0.00 67 1009.0
20260508211543 43 241 4.0 13.0 0.00 0.00 0.00 67 1009.0
20260508211030 43 229 7.0 13.0 0.00 0.00 0.00 67 1008.9
20260508210530 43 247 5.0 13.0 0.00 0.00 0.00 67 1008.9
20260508210057 43 250 3.0 12.0 0.00 0.00 0.00 67 1008.9
20260508205530 43 218 4.0 14.0 0.00 0.00 0.00 66 1008.9
20260508205031 44 247 5.0 18.0 0.00 0.00 0.00 64 1008.9
20260508204545 45 292 7.0 24.0 0.00 0.00 0.00 57 1008.7
20260508204029 46 242 8.0 24.0 0.00 0.00 0.00 53 1008.5
20260508203529 48 230 11.0 24.0 0.00 0.00 0.00 50 1008.2
20260508203047 49 252 5.0 15.0 0.00 0.00 0.00 53 1008.4
20260508202530 48 253 6.0 15.0 0.00 0.00 0.00 51 1008.2
20260508202029 48 209 7.0 15.0 0.00 0.00 0.00 50 1008.2
20260508201546 48 215 4.0 14.0 0.00 0.00 0.00 51 1008.1
20260508201029 47 227 7.0 13.0 0.00 0.00 0.00 50 1008.1
20260508200531 47 215 5.0 16.0 0.00 0.00 0.00 51 1008.2
20260508200048 48 225 4.0 16.0 0.00 0.00 0.00 50 1008.1
20260508195530 48 190 5.0 16.0 0.00 0.00 0.00 51 1008.1
20260508195032 48 258 8.0 16.0 0.00 0.00 0.00 49 1008.1
20260508194545 48 266 7.0 17.0 0.00 0.00 0.00 50 1008.1
20260508194031 48 213 8.0 18.0 0.00 0.00 0.00 51 1008.2
20260508193529 48 252 9.0 18.0 0.00 0.00 0.00 49 1008.4
20260508193052 48 234 6.0 15.0 0.00 0.00 0.00 51 1008.2
20260508192529 48 206 6.0 15.0 0.00 0.00 0.00 50 1008.3
20260508192031 48 215 6.0 15.0 0.00 0.00 0.00 51 1008.2
20260508191548 48 178 6.0 15.0 0.00 0.00 0.00 52 1008.2
20260508191031 46 274 8.0 15.0 0.00 0.00 0.00 53 1008.1
20260508190532 46 239 5.0 15.0 0.00 0.00 0.00 52 1008.2
20260508190054 47 245 7.0 15.0 0.00 0.00 0.00 52 1008.2
20260508185529 47 184 7.0 15.0 0.00 0.00 0.00 53 1008.3
20260508185029 47 240 4.0 15.0 0.00 0.00 0.00 55 1008.4
20260508184600 47 136 7.0 17.0 0.00 0.00 0.00 53 1008.3
20260508184029 47 227 6.0 19.0 0.00 0.00 0.00 55 1008.4
20260508183529 46 221 8.0 19.0 0.00 0.00 0.00 55 1008.5
20260508183044 46 239 9.0 17.0 0.00 0.00 0.00 53 1008.5
20260508182530 47 240 8.0 17.0 0.00 0.00 0.00 53 1008.4
20260508182029 47 269 8.0 19.0 0.00 0.00 0.00 51 1008.4
20260508181557 47 261 8.0 19.0 0.00 0.00 0.00 52 1008.2
20260508181029 47 217 8.0 16.0 0.00 0.00 0.00 51 1008.3
20260508180529 46 197 7.0 16.0 0.00 0.00 0.00 52 1008.3
20260508180046 47 271 5.0 21.0 0.00 0.00 0.00 52 1008.2
20260508175530 47 258 6.0 21.0 0.00 0.00 0.00 51 1008.2
20260508175030 47 103 7.0 21.0 0.00 0.00 0.00 50 1008.3
20260508174545 47 219 8.0 19.0 0.00 0.00 0.00 51 1008.4
20260508174029 47 211 8.0 20.0 0.00 0.00 0.00 50 1008.4
20260508173530 48 211 8.0 20.0 0.00 0.00 0.00 50 1008.4
20260508173048 47 257 4.0 16.0 0.00 0.00 0.00 53 1008.4
20260508172529 46 256 7.0 16.0 0.00 0.00 0.00 50 1008.4
20260508172029 46 201 7.0 14.0 0.00 0.00 0.00 52 1008.4
20260508171544 46 195 6.0 19.0 0.00 0.00 0.00 53 1008.4
20260508171030 45 273 9.0 19.0 0.00 0.00 0.00 53 1008.5
20260508170532 44 190 8.0 19.0 0.00 0.00 0.00 55 1008.5
20260508170042 44 240 9.0 17.0 0.00 0.00 0.00 55 1008.4
20260508165530 44 240 6.0 17.0 0.00 0.00 0.00 55 1008.5
20260508165032 43 220 7.0 15.0 0.00 0.00 0.00 54 1008.4
20260508164558 43 277 6.0 16.0 0.00 0.00 0.00 54 1008.5
20260508164031 43 255 8.0 16.0 0.00 0.00 0.00 53 1008.5
20260508163531 43 186 7.0 13.0 0.00 0.00 0.00 53 1008.5
20260508163045 43 270 5.0 14.0 0.00 0.00 0.00 53 1008.4
20260508162531 43 231 6.0 14.0 0.00 0.00 0.00 53 1008.5
20260508162032 43 281 6.0 12.0 0.00 0.00 0.00 54 1008.6
20260508161549 43 254 5.0 12.0 0.00 0.00 0.00 54 1008.5
20260508161032 43 247 6.0 12.0 0.00 0.00 0.00 52 1008.5
20260508160530 43 250 4.0 12.0 0.00 0.00 0.00 52 1008.4
20260508160044 44 207 4.0 12.0 0.00 0.00 0.00 52 1008.6
20260508155529 44 235 6.0 11.0 0.00 0.00 0.00 51 1008.5
20260508155029 44 246 5.0 12.0 0.00 0.00 0.00 52 1008.6
20260508154544 45 227 4.0 12.0 0.00 0.00 0.00 50 1008.4
20260508154030 45 250 6.0 12.0 0.00 0.00 0.00 50 1008.5
20260508153531 44 238 3.0 15.0 0.00 0.00 0.00 51 1008.5
20260508153040 45 281 6.0 15.0 0.00 0.00 0.00 49 1008.5
20260508152529 45 252 7.0 24.0 0.00 0.00 0.00 48 1008.4
20260508152029 45 263 7.0 24.0 0.00 0.00 0.00 47 1008.4
20260508151538 45 231 5.0 13.0 0.00 0.00 0.00 49 1008.1
20260508151033 44 265 5.0 13.0 0.00 0.00 0.00 52 1008.3
20260508150529 44 234 8.0 13.0 0.00 0.00 0.00 51 1008.1
20260508150052 44 257 5.0 11.0 0.00 0.00 0.00 50 1008.1
20260508145531 45 253 4.0 11.0 0.00 0.00 0.00 49 1008.0
20260508145028 45 288 4.0 17.0 0.00 0.00 0.00 51 1008.0
20260508144601 45 277 3.0 17.0 0.00 0.00 0.00 49 1008.0
20260508144031 44 246 7.0 17.0 0.00 0.00 0.00 48 1008.1
20260508143531 44 320 4.0 14.0 0.00 0.00 0.00 51 1008.2
20260508143045 43 196 4.0 10.0 0.00 0.00 0.00 53 1008.3
20260508142533 43 0 5.0 10.0 0.00 0.00 0.00 52 1008.3
20260508142031 42 194 4.0 11.0 0.00 0.00 0.00 54 1008.3
20260508141550 42 254 4.0 13.0 0.00 0.00 0.00 54 1008.3
20260508141030 42 259 5.0 13.0 0.00 0.00 0.00 54 1008.4
20260508140530 42 275 4.0 11.0 0.00 0.00 0.00 53 1008.6
20260508140051 42 255 4.0 11.0 0.00 0.00 0.00 55 1008.5
20260508135532 41 248 5.0 11.0 0.00 0.00 0.00 56 1008.5
20260508135032 41 269 4.0 11.0 0.00 0.00 0.00 57 1008.5
20260508134553 41 280 3.0 10.0 0.00 0.00 0.00 58 1008.5
20260508134028 41 245 4.0 14.0 0.00 0.00 0.00 57 1008.6
20260508133531 41 263 5.0 14.0 0.00 0.00 0.00 58 1008.6
20260508133109 40 220 3.0 10.0 0.00 0.00 0.00 59 1008.6
20260508132530 40 224 5.0 12.0 0.00 0.00 0.00 59 1008.6
20260508132029 40 141 3.0 12.0 0.00 0.00 0.00 60 1008.6
20260508131547 40 264 7.0 12.0 0.00 0.00 0.00 60 1008.7
20260508131031 39 261 3.0 8.0 0.00 0.00 0.00 63 1008.8
20260508130530 39 264 3.0 16.0 0.00 0.00 0.00 65 1008.8
20260508130043 38 264 4.0 16.0 0.00 0.00 0.00 64 1008.7
20260508125530 38 218 5.0 15.0 0.00 0.00 0.00 64 1008.8
20260508125028 38 232 4.0 12.0 0.00 0.00 0.00 69 1008.6
20260508124541 37 257 4.0 12.0 0.00 0.00 0.00 70 1008.7
20260508124031 36 246 4.0 12.0 0.00 0.00 0.00 72 1008.7
20260508123533 36 231 3.0 8.0 0.00 0.00 0.00 72 1008.7
20260508123058 36 261 3.0 8.0 0.00 0.00 0.00 75 1008.7
20260508122528 36 269 3.0 8.0 0.00 0.00 0.00 75 1008.7
20260508122030 35 223 2.0 9.0 0.00 0.00 0.00 75 1008.7
20260508121544 35 236 2.0 9.0 0.00 0.00 0.00 75 1008.8
20260508121030 35 242 3.0 10.0 0.00 0.00 0.00 76 1008.7
20260508120530 34 270 5.0 10.0 0.00 0.00 0.00 75 1008.7
20260508120046 34 250 4.0 12.0 0.00 0.00 0.00 75 1008.9
20260508115530 35 232 4.0 12.0 0.00 0.00 0.00 73 1008.8
20260508115030 35 207 3.0 7.0 0.00 0.00 0.00 73 1008.8
20260508114540 35 204 2.0 7.0 0.00 0.00 0.00 72 1008.7
20260508114031 35 248 3.0 9.0 0.00 0.00 0.00 72 1008.7
20260508113531 35 292 3.0 9.0 0.00 0.00 0.00 72 1008.7
20260508113102 35 246 2.0 9.0 0.00 0.00 0.00 72 1008.7
20260508112534 35 257 3.0 9.0 0.00 0.00 0.00 72 1008.7
20260508112030 34 228 2.0 7.0 0.00 0.00 0.00 72 1008.6
20260508111546 34 285 3.0 9.0 0.00 0.00 0.00 72 1008.6
20260508111028 34 259 3.0 9.0 0.00 0.00 0.00 72 1008.5
20260508110528 34 264 3.0 7.0 0.00 0.00 0.00 72 1008.5
20260508110054 34 246 2.0 5.0 0.00 0.00 0.00 72 1008.4
20260508105530 34 243 2.0 7.0 0.00 0.00 0.00 72 1008.3
20260508105029 34 242 3.0 7.0 0.00 0.00 0.00 71 1008.2
20260508104544 34 244 2.0 6.0 0.00 0.00 0.00 71 1008.1
20260508104028 34 233 2.0 6.0 0.00 0.00 0.00 70 1008.1
20260508103529 34 237 1.0 7.0 0.00 0.00 0.00 71 1008.0
20260508103052 34 246 2.0 7.0 0.00 0.00 0.00 70 1008.0
20260508102530 34 240 2.0 6.0 0.00 0.00 0.00 69 1008.0
20260508102031 34 259 1.0 5.0 0.00 0.00 0.00 69 1007.9
20260508101541 34 0 0.0 3.0 0.00 0.00 0.00 69 1007.8
20260508101030 34 236 1.0 3.0 0.00 0.00 0.00 69 1007.7
20260508100532 34 0 0.0 0.0 0.00 0.00 0.00 69 1007.6
20260508100044 34 0 0.0 2.0 0.00 0.00 0.00 69 1007.6
20260508095529 34 0 0.0 5.0 0.00 0.00 0.00 69 1007.6
20260508095029 34 0 1.0 5.0 0.00 0.00 0.00 68 1007.7
20260508094543 34 218 2.0 5.0 0.00 0.00 0.00 68 1007.6
20260508094030 34 219 2.0 5.0 0.00 0.00 0.00 68 1007.6
20260508093530 34 239 1.0 5.0 0.00 0.00 0.00 68 1007.6
20260508093044 34 254 2.0 6.0 0.00 0.00 0.00 68 1007.6
20260508092531 34 255 2.0 6.0 0.00 0.00 0.00 67 1007.5
20260508092028 34 248 3.0 9.0 0.00 0.00 0.00 67 1007.3
20260508091552 34 263 4.0 9.0 0.00 0.00 0.00 67 1007.2
20260508091031 34 249 3.0 7.0 0.00 0.00 0.00 68 1007.3
20260508090530 34 235 3.0 7.0 0.00 0.00 0.00 68 1007.3
20260508090059 34 240 3.0 7.0 0.00 0.00 0.00 68 1007.3
20260508085530 34 246 3.0 8.0 0.00 0.00 0.00 68 1007.2
20260508085030 34 254 4.0 8.0 0.00 0.00 0.00 67 1007.2
20260508084546 34 252 4.0 8.0 0.00 0.00 0.00 67 1007.2
20260508084032 34 262 3.0 10.0 0.00 0.00 0.00 67 1007.3
20260508083531 35 258 3.0 10.0 0.00 0.00 0.00 67 1007.3
20260508083043 35 244 3.0 10.0 0.00 0.00 0.00 66 1007.2
20260508082532 35 257 4.0 9.0 0.00 0.00 0.00 66 1007.1
20260508082030 35 259 4.0 9.0 0.00 0.00 0.00 66 1007.0
20260508081546 35 263 3.0 8.0 0.00 0.00 0.00 66 1007.0
20260508081032 35 248 3.0 8.0 0.00 0.00 0.00 66 1007.0
20260508080533 35 240 4.0 8.0 0.00 0.00 0.00 67 1007.1
20260508080039 35 244 4.0 10.0 0.00 0.00 0.00 66 1007.1
20260508075530 35 257 4.0 10.0 0.00 0.00 0.00 66 1007.1
20260508075027 35 255 5.0 9.0 0.00 0.00 0.00 66 1007.0
20260508074543 35 240 4.0 10.0 0.00 0.00 0.00 67 1007.0
20260508074031 35 248 4.0 10.0 0.00 0.00 0.00 67 1007.0
20260508073527 35 248 5.0 9.0 0.00 0.00 0.00 67 1006.9
20260508073043 35 249 4.0 13.0 0.00 0.00 0.00 67 1006.9
20260508072532 35 229 5.0 13.0 0.00 0.00 0.00 66 1006.8
20260508072031 35 227 4.0 12.0 0.00 0.00 0.00 66 1006.7
20260508071553 35 246 5.0 11.0 0.00 0.00 0.00 67 1006.6
20260508071033 35 253 5.0 10.0 0.00 0.00 0.00 67 1006.6
20260508070530 35 253 5.0 11.0 0.00 0.00 0.00 67 1006.5
20260508070044 35 252 4.0 11.0 0.00 0.00 0.00 67 1006.5
20260508065529 35 262 4.0 10.0 0.00 0.00 0.00 67 1006.5
20260508065031 35 251 5.0 11.0 0.00 0.00 0.00 67 1006.6
20260508064539 35 261 5.0 11.0 0.00 0.00 0.00 66 1006.7
20260508064032 35 256 5.0 10.0 0.00 0.00 0.00 66 1006.8
20260508063531 35 247 4.0 9.0 0.00 0.00 0.00 66 1006.8
20260508063043 35 243 4.0 12.0 0.00 0.00 0.00 66 1006.8
20260508062530 35 219 5.0 13.0 0.00 0.00 0.00 65 1006.8
20260508062030 35 232 5.0 13.0 0.00 0.00 0.00 66 1006.8
20260508061545 35 274 4.0 9.0 0.00 0.00 0.00 66 1006.8
20260508061031 35 260 4.0 9.0 0.00 0.00 0.00 65 1006.8
20260508060528 35 259 5.0 9.0 0.00 0.00 0.00 64 1006.9
20260508060044 35 255 4.0 9.0 0.00 0.00 0.00 64 1007.0
20260508055530 36 236 4.0 9.0 0.00 0.00 0.00 64 1007.0
20260508055030 36 246 4.0 9.0 0.00 0.00 0.00 64 1007.0
20260508054545 35 257 4.0 9.0 0.00 0.00 0.00 64 1007.1
20260508054030 35 221 3.0 7.0 0.00 0.00 0.00 63 1007.2
20260508053532 35 255 3.0 7.0 0.00 0.00 0.00 64 1007.1
20260508053100 35 247 2.0 8.0 0.00 0.00 0.00 63 1007.2
20260508052530 36 252 3.0 8.0 0.00 0.00 0.00 63 1007.2
20260508052029 36 250 2.0 6.0 0.00 0.00 0.00 63 1007.1
20260508051541 36 238 3.0 6.0 0.00 0.00 0.00 63 1007.2
20260508051030 36 228 2.0 8.0 0.00 0.00 0.00 63 1007.2
20260508050531 36 249 2.0 8.0 0.00 0.00 0.00 63 1007.3
20260508050047 36 246 2.0 8.0 0.00 0.00 0.00 63 1007.2
20260508045533 36 248 2.0 8.0 0.00 0.00 0.00 63 1007.3
20260508045030 36 272 2.0 8.0 0.00 0.00 0.00 64 1007.2
20260508044544 36 263 3.0 8.0 0.00 0.00 0.00 63 1007.4
20260508044032 36 259 2.0 6.0 0.00 0.00 0.00 63 1007.5
20260508043530 36 249 2.0 5.0 0.00 0.00 0.00 63 1007.3
20260508043044 36 301 1.0 5.0 0.00 0.00 0.00 63 1007.4
20260508042532 36 273 1.0 6.0 0.00 0.00 0.00 63 1007.5
20260508042032 36 252 2.0 7.0 0.00 0.00 0.00 63 1007.6
20260508041607 36 261 2.0 7.0 0.00 0.00 0.00 64 1007.7
20260508041032 36 263 3.0 7.0 0.00 0.00 0.00 64 1007.6
20260508040531 36 253 3.0 7.0 0.00 0.00 0.00 64 1007.6
20260508040105 36 261 2.0 7.0 0.00 0.00 0.00 64 1007.6
20260508035536 36 227 2.0 7.0 0.00 0.00 0.00 63 1007.6
20260508035034 36 257 2.0 7.0 0.00 0.00 0.00 64 1007.7
20260508034544 36 254 2.0 5.0 0.00 0.00 0.00 63 1007.8
20260508034032 36 267 2.0 4.0 0.00 0.00 0.00 63 1007.7
20260508033531 36 267 2.0 4.0 0.00 0.00 0.00 63 1007.7
20260508033044 36 266 2.0 3.0 0.00 0.00 0.00 62 1007.7
20260508032532 37 274 1.0 3.0 0.00 0.00 0.00 62 1007.8
20260508032031 37 274 1.0 3.0 0.00 0.00 0.00 62 1007.9
20260508031543 37 274 1.0 4.0 0.00 0.00 0.00 62 1007.8